Change the Weather History Date:

Saturday, March 9, 2013

  Actual Average Record
Temperature  
Mean Temperature 25 °F 29 °F  
Max Temperature 31 °F 41 °F 68 °F (1989)
Min Temperature 18 °F 17 °F -9 °F (2002)
Degree Days  
Heating Degree Days 40 36  
Month to date heating degree days 314 339  
Since 1 July heating degree days 6330 6658  
Cooling Degree Days 0 0  
Month to date cooling degree days 0 0  
Year to date cooling degree days 0 0  
Moisture  
Dew Point 23 °F    
Average Humidity 80    
Maximum Humidity 100    
Minimum Humidity 60    
Precipitation  
Precipitation 0.13 in 0.03 in 0.51 in (2002)
Month to date precipitation 0.42 0.34  
Year to date precipitation 1.57 2.58  
Sea Level Pressure  
Sea Level Pressure 29.71 in    
Wind  
Wind Speed 6 mph (NNW)    
Max Wind Speed 15 mph    
Max Gust Speed 22 mph    
Visibility 5 miles    
Events Fog , Snow    
T = Trace of Precipitation, MM = Missing Value Source: NWS Daily Summary

Daily Weather History Graph

Daily Weather History Graph

Search for Another Location

Airport or City:

Trip Planner

Search our weather history database for the weather conditions in past years. The results will help you decide how hot, cold, wet, or windy it might be!

Date:

Astronomy

Mar. 09, 2013 Rise Set
Actual Time 6:27 AM MST 6:08 PM MST
Civil Twilight 6:00 AM MST 6:35 PM MST
Nautical Twilight 5:30 AM MST 7:06 PM MST
Astronomical Twilight 4:58 AM MST 7:37 PM MST
Moon 4:52 AM MST (3/9) 4:14 PM MST (3/9)
Length of Visible Light 12h 34m
Length of Day
11h 41m
Waning Crescent, 5% of the Moon is Illuminated
Mar 9
Waning Crescent
Mar 11
New
Mar 19
First Quarter
Mar 27
Full
Apr 2
Last Quarter

Hourly Weather History & Observations

Time (MST) Temp. Windchill Dew Point Humidity Pressure Visibility Wind Dir Wind Speed Gust Speed Precip Events Conditions
12:04 AM 30.2 °F - 30.2 °F 100% 29.68 in 1.8 mi Calm Calm - 0.00 in Snow Light Snow
12:51 AM 30.2 °F 25.4 °F 28.4 °F 93% 29.68 in 3.0 mi North 4.6 mph - 0.02 in Snow Light Snow
12:52 AM 30.0 °F 25.2 °F 28.9 °F 96% 29.52 in 3.0 mi North 4.6 mph - 0.02 in Snow Light Snow
1:01 AM 30.2 °F 25.4 °F 28.4 °F 93% 29.68 in 7.0 mi NNE 4.6 mph - 0.00 in   Overcast
1:53 AM 28.9 °F - 28.0 °F 96% 29.51 in 10.0 mi Calm Calm - 0.00 in   Overcast
2:14 AM 28.4 °F 24.6 °F 26.6 °F 93% 29.67 in 10.0 mi SSE 3.5 mph - N/A   Scattered Clouds
2:51 AM 26.6 °F - 23.0 °F 86% 29.66 in 10.0 mi Calm Calm - N/A   Mostly Cloudy
2:53 AM 26.1 °F - 23.0 °F 88% 29.54 in 10.0 mi Calm Calm - N/A   Mostly Cloudy
3:00 AM 24.8 °F - 23.0 °F 93% 29.65 in 10.0 mi Calm Calm - N/A   Scattered Clouds
3:53 AM 21.9 °F 17.2 °F 19.9 °F 92% 29.54 in 10.0 mi SSW 3.5 mph - N/A   Clear
4:53 AM 21.0 °F 16.2 °F 19.0 °F 92% 29.53 in 10.0 mi South 3.5 mph - N/A   Scattered Clouds
5:53 AM 24.1 °F 17.0 °F 19.9 °F 84% 29.55 in 10.0 mi SW 5.8 mph - N/A   Clear
6:53 AM 25.0 °F 19.3 °F 19.9 °F 81% 29.58 in 6.0 mi South 4.6 mph - N/A   Haze
7:53 AM 25.0 °F - 21.9 °F 88% 29.59 in 2.0 mi Calm Calm - 0.00 in Snow Light Snow
8:53 AM 26.1 °F - 24.1 °F 92% 29.60 in 1.0 mi Calm Calm - 0.02 in Snow Light Snow
9:00 AM 26.6 °F - 24.8 °F 93% 29.67 in 0.5 mi Calm Calm - 0.00 in Fog , Snow Light Snow
9:33 AM 26.6 °F - 24.8 °F 93% 29.67 in 1.0 mi Calm Calm - 0.03 in Snow Light Snow
9:53 AM 27.0 °F - 25.0 °F 92% 29.60 in 0.5 mi Calm Calm - 0.04 in Fog , Snow Light Snow
10:53 AM 28.9 °F 19.8 °F 26.1 °F 89% 29.61 in 1.0 mi NNE 10.4 mph - 0.04 in Snow Light Snow
11:10 AM 28.4 °F 18.5 °F 24.8 °F 86% 29.69 in 2.0 mi North 11.5 mph - 0.00 in Snow Light Snow
11:53 AM 28.0 °F 18.1 °F 24.1 °F 85% 29.64 in 1.5 mi North 11.5 mph - 0.00 in Snow Light Snow
11:56 AM 28.4 °F 18.0 °F 24.8 °F 86% 29.71 in 1.0 mi North 12.7 mph - 0.00 in Snow Light Snow
12:53 PM 28.0 °F 17.5 °F 23.0 °F 81% 29.66 in 1.0 mi North 12.7 mph 18.4 mph 0.00 in Snow Light Snow
12:58 PM 28.4 °F 17.5 °F 23.0 °F 80% 29.72 in 1.0 mi NNW 13.8 mph 20.7 mph 0.00 in Snow Light Snow
1:53 PM 27.0 °F 17.3 °F 23.0 °F 85% 29.69 in 0.8 mi North 10.4 mph - 0.01 in Snow Light Snow
2:53 PM 27.0 °F 18.7 °F 24.1 °F 89% 29.72 in 0.8 mi North 8.1 mph - 0.00 in Snow Light Snow
3:28 PM 28.4 °F 24.6 °F 24.8 °F 86% 29.77 in 1.5 mi Variable 3.5 mph 16.1 mph 0.00 in Snow Light Snow
3:43 PM 28.4 °F - 23.0 °F 80% 29.78 in 3.0 mi Calm Calm - 0.00 in Snow Light Snow
3:53 PM 28.9 °F 21.9 °F 23.0 °F 78% 29.76 in 3.0 mi Variable 6.9 mph - 0.00 in   Overcast
4:53 PM 28.0 °F 21.7 °F 21.9 °F 78% 29.82 in 5.0 mi Variable 5.8 mph - 0.00 in Snow Light Snow
5:53 PM 28.0 °F 20.0 °F 21.9 °F 78% 29.84 in 5.0 mi NW 8.1 mph - 0.00 in Snow Light Snow
6:53 PM 27.0 °F 20.5 °F 21.9 °F 81% 29.88 in 3.0 mi NW 5.8 mph - 0.00 in Snow Light Snow
7:53 PM 26.1 °F 18.4 °F 21.9 °F 84% 29.91 in 4.0 mi NW 6.9 mph - 0.00 in Snow Light Snow
8:53 PM 26.1 °F 15.6 °F 16.0 °F 66% 29.94 in 10.0 mi NW 11.5 mph - 0.00 in   Mostly Cloudy
9:53 PM 24.1 °F 15.2 °F 12.9 °F 62% 29.98 in 10.0 mi NW 8.1 mph - N/A   Scattered Clouds
10:53 PM 21.0 °F 13.4 °F 14.0 °F 74% 30.01 in 10.0 mi North 5.8 mph - N/A   Mostly Cloudy
11:53 PM 19.0 °F - 12.9 °F 77% 30.04 in 10.0 mi Calm Calm - N/A   Overcast